Mathews, Virginia, United States (23109)
Lat: 37.44N, Lon: 76.32W
Wx Zone: VAZ086
Local Info
Past Weather Observations for Today

NOTE: This archive is for the closest National Weather Service station to Mathews. Information may differ from the station used for current weather conditions.

Click here for Long-term Archive

Time Weather Temperature Dewpoint Humidity Pressure Winds Precip Visibility
19:54
Overcast
73°F / 23°C 57°F / 14°C 57% 30.06 in
(1018 mb)
ESE 3.5 mph
(ESE 6 kph)
- 10SM
18:54
Overcast
73°F / 23°C 55°F / 13°C 53% 30.04 in
(1017 mb)
E 4.6 mph
(E 7 kph)
- 10SM
17:54
Mostly Cloudy
73°F / 23°C 55°F / 13°C 53% 30.04 in
(1017 mb)
ESE 5.8 mph
(ESE 9 kph)
- 10SM
16:54
Overcast
73°F / 23°C 55°F / 13°C 53% 30.01 in
(1016 mb)
E 6.9 mph
(E 11 kph)
- 10SM
15:54
Clear
79°F / 26°C 55°F / 13°C 45% 30.01 in
(1016 mb)
SE 9.2 mph
(SE 15 kph)
- 10SM
14:54
Overcast
79°F / 26°C 55°F / 13°C 45% 30.01 in
(1016 mb)
E 9.2 mph
(E 15 kph)
- 10SM
13:54
Clear
81°F / 27°C 54°F / 12°C 39% 30.01 in
(1016 mb)
E 8.1 mph
(E 13 kph)
- 10SM
12:54
Clear
79°F / 26°C 52°F / 11°C 39% 30.04 in
(1017 mb)
E 5.8 mph
(E 9 kph)
- 10SM
11:54
Clear
79°F / 26°C 54°F / 12°C 42% 30.04 in
(1017 mb)
ENE 8.1 mph
(ENE 13 kph)
- 10SM
10:54
Partly Cloudy
79°F / 26°C 54°F / 12°C 42% 30.04 in
(1017 mb)
E 8.1 mph
(E 13 kph)
- 10SM
09:54
Clear
79°F / 26°C 57°F / 14°C 48% 30.04 in
(1017 mb)
ENE 6.9 mph
(ENE 11 kph)
- 10SM
08:54
Clear
77°F / 25°C 59°F / 15°C 54% 30.01 in
(1016 mb)
ENE 6.9 mph
(ENE 11 kph)
- 10SM
07:54
Clear
73°F / 23°C 63°F / 17°C 69% 30.01 in
(1016 mb)
Calm - 10SM
06:54
Clear
63°F / 17°C 59°F / 15°C 88% 30.01 in
(1016 mb)
Calm - 7SM
05:54
Clear
57°F / 14°C 54°F / 12°C 88% 29.98 in
(1015 mb)
Calm - 7SM
04:54
Clear
61°F / 16°C 55°F / 13°C 83% 29.98 in
(1015 mb)
Calm - 9SM
03:54
Clear
61°F / 16°C 55°F / 13°C 83% 29.98 in
(1015 mb)
Calm - 9SM
02:54
Clear
61°F / 16°C 55°F / 13°C 83% 29.95 in
(1014 mb)
N 3.5 mph
(N 6 kph)
- 9SM
01:54
Clear
61°F / 16°C 57°F / 14°C 88% 29.95 in
(1014 mb)
N 3.5 mph
(N 6 kph)
- 8SM
00:54
Clear
61°F / 16°C 57°F / 14°C 88% 29.98 in
(1015 mb)
Calm - 10SM
Time Weather Temperature Dewpoint Humidity Pressure Winds Precip Visibility


Weather for websites

WeatherForYou.com, LLC is not responsible for any damages or problems caused by this service. Current weather conditions are obtained from the closest station including government and personal stations which may have varying degrees of accuracy. Weather forecasts are derived from the NOAA NDFD. Like all things, this site belongs to Jesus Christ... He just trusts me to maintain it. If you have any questions or comments email webmaster@weatherforyou.com

Copyright © 2014, WeatherForYou.com LLC. All rights reserved.